Погода в Ташбулатове

Россия / Республика Башкортостан     53°37′17″N   58°42′04″E
темп.,
°C
ветер,
м/с
пор.,
м/с
влажн.,
%
обл.,
%
осадки,
мм/ч
давл.,
гПа
погр.,
м
25 февраля, чт
чт2523:00−23сз3482100 0.3 102160
02:00−25зсз228395 0.0 102420
05:00−27зсз228471 0.0 102720
08:00−28зсз22810 0.0 102920
11:00−22зсз11780 0.0 103174
14:00−17ю12730 0.0 1030232
17:00−19ю34880 0.0 1030102
20:00−22ююз33880 0.0 103136
26 февраля, пт
пт2623:00−24зюз11890 0.0 103120
02:00−26з11890 0.0 103020
05:00−27зсз11830 0.0 103020
08:00−29юз00790 0.0 102919
11:00−23юв11788 0.0 1028107
14:00−20ююв238376 0.0 1026254
17:00−20ююв239773 0.0 1025127
20:00−25ю2310097 0.0 102523
27 февраля, сб
сб2723:00−25ю2210098 0.1 102420
02:00−26ююв12100100 0.1 102220
05:00−26ююв11100100 0.1 102020
08:00−24юв1199100 0.1 101637
11:00−20юв2497100 0.9 1013343
14:00−16юв2495100 2.4 1010389
17:00−13ссв1194100 3.3 1008134
20:00−15с3396100 0.3 100674
28 февраля, вс
вс2823:00−15с2396100 0.5 100636
02:00−14с119697 0.2 100423
05:00−13ююз019699 0.2 100421
08:00−11ююз2296100 0.0 100421
11:00−6ю2497100 0.1 1004152
14:00−2ю3494100 0.1 1004350
17:00−1ююз3489100 0.3 1004115
20:00−3юз2388100 0.0 100629
1 марта, пн
пн123:00−4юз2296100 0.2 100755
02:00−5з1294100 0.1 100821
05:00−11ссв239994 0.2 101054
08:00−13ссв229899 0.0 101223
11:00−10всв119599 0.1 1013132
14:00−8юв1192100 0.1 1013221
17:00−7ююв2396100 0.1 1014131
20:00−11ююз129795 0.1 101421